Simultaneous Nadir Overpasses (SNOs) Predictions

Prediction of SNOs between AQUA and NOAA-19 Satellite Orbit:

Table of predicted SNOs for the next 14.0 days since TLE Epoch: 3/29/2015
Index Date (AQUA) Time (AQUA) Lat,Lon (AQUA) SZA (AQUA ) Date (NOAA-19) Time (NOAA-19) Lat,Lon (NOAA-19) SZA (NOAA-19 ) Distance(km) Time Diff (sec)
1 03/29/2015 10:12:22 -79.68, 178.99 102.38 03/29/2015 10:11:54 -79.69, 178.87 102.35 2.52 28
2 03/29/2015 11:01:43 79.49, -12.03 77.33 03/29/2015 11:02:44 79.49, -12.00 77.31 0.53 61
3 03/31/2015 15:46:06 79.64, -84.19 76.69 03/31/2015 15:46:16 79.65, -84.29 76.71 2.15 10
4 04/02/2015 20:30:26 79.71,-155.76 75.94 04/02/2015 20:29:45 79.72,-155.81 75.97 1.20 41
5 04/02/2015 21:19:47 -79.52, 13.28 104.37 04/02/2015 21:20:44 -79.51, 13.41 104.41 2.68 57
6 04/05/2015 02:04:08 -79.65, -58.72 105.03 04/05/2015 02:04:15 -79.64, -58.62 105.05 2.34 7
7 04/07/2015 06:48:28 -79.77,-130.68 105.69 04/07/2015 06:47:46 -79.77,-130.74 105.66 1.36 42
8 04/07/2015 07:37:50 79.59, 38.23 74.04 04/07/2015 07:38:36 79.59, 38.32 74.01 2.09 46
9 04/09/2015 12:22:09 79.71, -33.67 73.38 04/09/2015 12:22:06 79.70, -33.63 73.37 1.12 3
10 04/11/2015 17:06:27 79.81,-105.51 72.72 04/11/2015 17:05:36 79.82,-105.65 72.76 2.91 51




NCC Satellite Simultaneous Nadir Overpasses (SNOs) Prediction Service
